Tracking 28790 objects as of 19-Apr-2024
HD Live streaming from Space Station
objects crossing your sky now

STARLINK-4006

Track STARLINK-4006 now!
10-day predictions
STARLINK-4006 is classified as:


NORAD ID: 52676
Int'l Code: 2022-053W
Perigee: 545.8 km
Apogee: 547.8 km
Inclination: 53.2 °
Period: 95.4 minutes
Semi major axis: 6917 km
RCS: Unknown
Launch date: May 18, 2022
Source: United States (US)
Launch site: AIR FORCE EASTERN TEST RANGE (AFETR)
Your satellite tracking list
Your tracking list is empty




NASA's NSSDC Master Catalog

Two Line Element Set (TLE):
1 52676U 22053W   24110.14677871  .00011801  00000-0  75765-3 0  9991
2 52676  53.2184   9.5936 0001451 120.7043 239.4093 15.08871410106519
Source of the keplerian elements: AFSPC